{"data":{"norad_id":68298,"epoch":"2026-09-20T04:38:44.531808Z","epoch_age_seconds":78650,"freshness":"FRESH","line1":"1 68298U 26057E   26263.19357097  .00016299  00000+0  50596-3 0  9997","line2":"2 68298  97.2880  28.5486 0000357 131.5023 228.6250 15.33454863 28469","mean_motion":15.33454863,"eccentricity":3.57e-5,"inclination_deg":97.288,"raan_deg":28.5486,"arg_perigee_deg":131.5023,"mean_anomaly_deg":228.625,"bstar":0.00050596,"rev_number":2846,"period_min":93.905600663252,"perigee_km":465.26951095203,"apogee_km":465.75814762124,"semimajor_km":6843.6508292866,"source":"CELESTRAK","updated_at":"2026-09-20T09:00:43.854007Z"}}